Content
SEND FEEDBACK

Daily
Averages
Monthly
Summary
United States of America

NAPERVILLE, ILLINOIS


Home > North America > United States > Illinois
Elevation: 687 feet     Latitude: 41 49N     Longitude: 088 04W

WEATHER
 
SELECT A DAY
Number of Records: 196,864;   Date Range: 1/1/95 - 9/22/14
 
SHARE

PRINT THIS DATA

[ ← Previous Day ]
WEATHER ALMANAC - JANUARY 20, 2014
[ Next Day → ]
[ °C ]   °F
Weather ElementAverageHighLow
Temperature25.3 °F35.1 °F (1:51 am)12.9 °F (11:51 pm)
Dewpoint18 °F25 °F (1:51 am)7 °F (11:51 pm)
Humidity74.1 %81 % (8:00 pm)66 % (4:51 am)
Barometer29.92 in30.07 in (11:51 pm)29.64 in (1:51 am)
Wind Speed12.4 mph24.2 mph (7:13 pm)
Wind Gust31.1 mph (11:51 pm)
Weather ElementAverage
Visibility6.5 mi
Wind DirectionSSE (174.3 °)

Weather ElementTotal
Precipitation0.28 in
Heating Degree Days41 (Base 65)
Averaged from 42 records on January 20, 2014
WEATHER CONDITIONS BREAKOUT
WIND DIRECTION BREAKOUT
WEATHER BY HOUR - JANUARY 20, 2014
[ °C ]   °F
Local TimeTemperatureDewpointHumidityBarometerVisibilityWind DirectionWind SpeedGust SpeedPrecipitationEventsConditions
1:51 AM35.1 °F25.0 °F67 %29.64 in10.0 miWNW (300°)11.5 mphOvercast
2:51 AM35.1 °F25.0 °F67 %29.70 in10.0 miNW (310°)12.7 mph19.6 mphOvercast
3:51 AM35.1 °F25.0 °F67 %29.72 in10.0 miNW (320°)12.7 mphOvercast
4:51 AM33.1 °F23.0 °F66 %29.74 in10.0 miNNW (340°)16.1 mphOvercast
5:18 AM33.1 °F23.0 °F66 %29.74 in10.0 miNNW (340°)11.5 mphOvercast
5:51 AM32.0 °F21.9 °F66 %29.77 in10.0 miNorth (350°)9.2 mphOvercast
6:51 AM30.9 °F24.1 °F76 %29.81 in10.0 miVariable4.6 mphOvercast
7:51 AM30.0 °F24.1 °F79 %29.82 in10.0 miEast (100°)6.9 mphOvercast
8:51 AM30.0 °F24.1 °F79 %29.82 in9.0 miENE (70°)5.8 mphOvercast
9:13 AM30.9 °F24.1 °F76 %29.82 in10.0 miNE (40°)6.9 mphOvercast
9:51 AM30.9 °F24.1 °F76 %29.86 in10.0 miVariable3.5 mphOvercast
10:26 AM32.0 °F24.1 °F73 %29.86 in10.0 miCalmOvercast
10:51 AM32.0 °F24.1 °F73 %29.88 in10.0 miEast (90°)4.6 mphOvercast
11:46 AM33.8 °F24.8 °F70 %29.85 in10.0 miCalmOvercast
11:51 AM33.1 °F25.0 °F72 %29.87 in10.0 miCalmOvercast
12:46 PM33.8 °F24.8 °F70 %29.84 in10.0 miENE (60°)3.5 mphOvercast
12:51 PM34.0 °F25.0 °F70 %29.87 in10.0 miNE (40°)3.5 mphOvercast
1:51 PM33.1 °F24.1 °F70 %29.86 in10.0 miNE (50°)8.1 mphOvercast
2:51 PM28.9 °F21.9 °F75 %29.89 in10.0 miNE (40°)13.8 mphOvercast
3:27 PM28.0 °F21.0 °F75 %29.89 in10.0 miNE (40°)13.8 mphOvercast
3:51 PM28.0 °F19.9 °F72 %29.93 in10.0 miNNE (30°)15.0 mphOvercast
4:51 PM26.1 °F19.0 °F75 %29.95 in9.0 miNNE (20°)13.8 mph0.00 inSnowLight Snow
5:51 PM24.1 °F18.0 °F77 %29.98 in7.0 miNNE (20°)17.3 mph24.2 mph0.01 inSnowLight Snow
6:51 PM23.0 °F16.0 °F74 %30.01 in5.0 miNNE (20°)16.1 mph0.01 inSnowLight Snow
7:13 PM21.9 °F15.1 °F75 %29.99 in4.0 miNNE (20°)24.2 mph0.00 inSnowLight Snow
7:35 PM21.0 °F15.1 °F78 %29.99 in2.5 miNNE (20°)17.3 mph0.01 inSnowLight Snow
7:51 PM21.0 °F14.0 °F74 %30.02 in2.0 miNorth (10°)17.3 mph0.01 inSnowLight Snow
8:00 PM19.9 °F15.1 °F81 %30.00 in1.5 miNorth (10°)16.1 mph0.00 inSnowLight Snow
8:25 PM19.0 °F12.9 °F77 %30.00 in2.5 miNorth (360°)15.0 mph0.01 inSnowLight Snow
8:51 PM18.0 °F12.0 °F78 %30.03 in2.0 miNorth (10°)17.3 mph0.02 inSnowLight Snow
8:59 PM18.0 °F12.0 °F78 %30.01 in4.0 miNorth (360°)15.0 mph0.00 inSnowLight Snow
9:03 PM18.0 °F12.0 °F78 %30.01 in4.0 miNorth (360°)17.3 mph0.00 inSnowLight Snow
9:12 PM18.0 °F12.0 °F78 %30.01 in5.0 miNorth (360°)13.8 mph23.0 mph0.00 inSnowLight Snow
9:25 PM17.1 °F10.9 °F77 %30.01 in4.0 miNorth (360°)15.0 mph0.00 inSnowLight Snow
9:42 PM17.1 °F10.9 °F77 %30.01 in3.0 miNorth (350°)16.1 mph0.01 inSnowLight Snow
9:51 PM17.1 °F10.0 °F74 %30.04 in2.5 miNorth (360°)16.1 mph0.01 inSnowLight Snow
10:16 PM16.0 °F10.0 °F77 %30.01 in1.8 miNorth (360°)16.1 mph0.01 inSnowLight Snow
10:35 PM16.0 °F9.0 °F74 %30.02 in0.8 miNorth (360°)16.1 mph0.02 inSnowLight Snow
10:49 PM15.8 °F8.6 °F73 %30.02 in0.5 miNorth (360°)16.1 mph0.03 inSnowSnow
10:51 PM15.1 °F9.0 °F77 %30.05 in0.5 miNorth (360°)19.6 mph25.3 mph0.03 inSnowSnow
11:03 PM15.1 °F9.0 °F77 %30.03 in0.5 miNorth (360°)21.9 mph26.5 mph0.02 inSnowSnow
11:51 PM12.9 °F7.0 °F77 %30.07 in0.5 miNorth (360°)20.7 mph31.1 mph0.08 inSnowSnow
Hourly data recorded from KORD, located miles away from Naperville, Illinois







STORIES FROM OUR PARTNERS